LFRBLFRT

Guest
Details From LFRB - Brest Bretagne
To LFRT - Saint Brieuc Armor
Flight Number -
Tags generated
Created
Modified
Stats Distance 62 nm / 116 km
Max Altitude 6,200 ft / 1,890 m
Waypoints 3
Social Downloads 1
Likes 0
Share VATSIM

Download

Looking for another format? Having issues loading an existing format? Contact us
Advertisement - Login to hide

Notes

Basic altitude profile: - Ascent Rate: 2500ft/min - Ascent Speed: 250kts - Cruise Altitude: 35000ft - Cruise Speed: 420kts - Descent Rate: 1500ft/min - Descent Speed: 250kts Options: - Use NATs: yes - Use PACOTS: yes - Use low airways: yes - Use high airways: yes

Route

LFRB LARSI LFRT

ID Type Via Altitude Latitude Longitude Leg Dist Tot Dist Heading (true) Name
O LFRB APT - 0 ft / 0 m 48.44938˚ -4.41823˚ - 0 nm - Brest Bretagne
LARSI FIX - 6,200 ft / 1,890 m 48.51639˚ -3.59167˚ 33 nm 33 nm 83° / 83° -
O LFRT APT - 0 ft / 0 m 48.53826˚ -2.85461˚ 29 nm 62 nm 87° / 88° Saint Brieuc Armor

Altitude Profile

Advertisement - Login to hide

LFRB

Details ICAO LFRB (BES)
Name Brest Bretagne
Region France
Timezone Europe/Paris (UTC+1.0)
Stats Elevation 325 ft / 99 m (AMSL)
Location 48.449376° -4.418232°
Runways 2
Magnetic Variation 1.576° W

METAR

LFRB 151600Z AUTO 34014KT 9999 BKN025/// BKN036/// BKN044/// ///TCU 08/05 Q1008 TEMPO 34017G32KT 4000 SHRA

Decode

TAF

TAF LFRB 151100Z 1512/1618 33013KT 9999 FEW026 SCT032 BKN050 TEMPO 1512/1518 34017G32KT 4000 SHRA BKN018TCU BECMG 1522/1524 36010KT

Decode

Departure Runways

ID Width Length Bearing (true) Bearing (mag) Surface Threshold Offset Overrun Length
07L 62 ft / 19 m 2,518 ft / 768 m 71.21° 72.79° Asphalt 131 ft / 40 m 0 ft / 0 m
07R 148 ft / 45 m 10,153 ft / 3,095 m 71.16° 72.74° Asphalt 0 ft / 0 m 0 ft / 0 m
25L 148 ft / 45 m 10,153 ft / 3,095 m 251.19° 252.77° Asphalt 984 ft / 300 m 0 ft / 0 m
25R 62 ft / 19 m 2,518 ft / 768 m 251.22° 252.80° Asphalt 112 ft / 34 m 0 ft / 0 m

LFRT

Details ICAO LFRT (SBK)
Name Saint Brieuc Armor
Region France
Timezone Europe/Paris (UTC+1.0)
Stats Elevation 452 ft / 138 m (AMSL)
Location 48.538265° -2.854612°
Runways 1
Magnetic Variation 1.052° W

METAR

LFRT 151600Z AUTO 34006KT 310V030 9999 FEW027 BKN034 OVC050 05/03 Q1006

Decode

TAF

Not found

Destination Runways

ID Width Length Bearing (true) Bearing (mag) Surface Threshold Offset Overrun Length
06 148 ft / 45 m 7,214 ft / 2,199 m 58.77° 59.82° Asphalt 0 ft / 0 m 0 ft / 0 m
24 148 ft / 45 m 7,214 ft / 2,199 m 238.79° 239.84° Asphalt 0 ft / 0 m 0 ft / 0 m

Approach Navaids

Runway Type Ident Frequency Range Bearing (true) Bearing (mag) Slope Elevation
24 Localiser SB 109.95 MHz 18 nm / 33 km 238.78° 239.83° - 452 ft / 138 m (AMSL)
24 Glidescope SB 109.95 MHz 10 nm / 19 km 238.78° 239.83° 3.00° 452 ft / 138 m (AMSL)

Popular Alternatives